logo meteosicilia

Diretta Meteo Lamezia Terme, Italiamercoledì 22 maggio ore 13:20

Mappa
Sereno 23 °C Sereno 24 Ore: T.min 17 T.max 23
Ponente Ovest Km/h 27.8 Punto di rugiada: 16 °C Umidità: 64% Visibilità: 10 Km
Il sole sorge alle: 05:35 Il sole tramonta alle: 20:08
22 Maggio 2024 13:20 tempo osservato: Sereno Sereno 23 64 1017 vento: Nord O 27.8
22 Maggio 2024 12:50 tempo osservato: Sereno Sereno 23 64 1017 vento: Nord O 25.9
22 Maggio 2024 12:20 tempo osservato: Sereno Sereno 23 60 1017 vento: Nord O/SO 22.2
22 Maggio 2024 11:50 tempo osservato: Sereno Sereno 23 60 1017 vento: Nord O 22.2
22 Maggio 2024 11:20 tempo osservato: Sereno Sereno 22 64 1017 vento: Nord O 22.2
22 Maggio 2024 10:50 tempo osservato: Sereno Sereno 23 64 1017 vento: Nord O/SO 18.5
22 Maggio 2024 10:20 tempo osservato: Sereno Sereno 22 68 1017 vento: Nord O/SO 22.2
22 Maggio 2024 09:50 tempo osservato: Sereno Sereno 22 68 1017 vento: Nord O/SO 18.5
22 Maggio 2024 09:20 tempo osservato: Sereno Sereno 22 68 1017 vento: Nord SO 14.8
22 Maggio 2024 08:50 tempo osservato: Sereno Sereno 22 68 1017 vento: Nord O/SO 16.7
22 Maggio 2024 08:20 tempo osservato: Sereno Sereno 21 73 1016 vento: Nord O/SO 14.8
22 Maggio 2024 07:50 tempo osservato: Sereno Sereno 21 73 1016 vento: Nord O 16.7
22 Maggio 2024 07:20 tempo osservato: Sereno Sereno 20 77 1016 vento: Nord O 14.8
22 Maggio 2024 06:50 tempo osservato: Sereno Sereno 19 82 1016 vento: Nord O/SO 13
22 Maggio 2024 06:20 tempo osservato: Sereno Sereno 18 88 1015 vento: Nord O 13
22 Maggio 2024 05:50 tempo osservato: Poco Nuvoloso Poco Nuvoloso 18 82 1015 vento: Nord O/SO 11.1
22 Maggio 2024 05:20 tempo osservato: Poco Nuvoloso Poco Nuvoloso 18 82 1015 vento: Nord O/SO 11.1
22 Maggio 2024 04:50 tempo osservato: Sereno Sereno 18 82 1015 vento: Nord O 14.8
22 Maggio 2024 04:20 tempo osservato: Sereno Sereno 18 82 1015 vento: Nord O 14.8
22 Maggio 2024 03:50 tempo osservato: Sereno Sereno 18 82 1015 vento: Nord O/SO 13
22 Maggio 2024 03:20 tempo osservato: Sereno Sereno 17 88 1015 vento: Nord O 13
22 Maggio 2024 02:50 tempo osservato: Sereno Sereno 18 82 1015 vento: Nord O 16.7
22 Maggio 2024 02:20 tempo osservato: Poco Nuvoloso Poco Nuvoloso 19 82 1015 vento: Nord O 14.8
22 Maggio 2024 01:50 tempo osservato: Nuvoloso Nuvoloso 19 82 1015 vento: Nord O 11.1
22 Maggio 2024 01:20 tempo osservato: Nuvoloso Nuvoloso 19 88 1015 vento: Nord O 14.8
22 Maggio 2024 00:50 tempo osservato: Poco Nuvoloso Poco Nuvoloso 18 88 1015 vento: Nord O 13
22 Maggio 2024 00:20 tempo osservato: Poco Nuvoloso Poco Nuvoloso 19 82 1016 vento: Nord O 14.8
21 Maggio 2024 23:50 tempo osservato: Sereno Sereno 19 82 1016 vento: Nord O 14.8
21 Maggio 2024 23:20 tempo osservato: Sereno Sereno 19 82 1015 vento: Nord O 16.7
21 Maggio 2024 22:50 tempo osservato: Sereno Sereno 19 82 1015 vento: Nord O 18.5
21 Maggio 2024 22:20 tempo osservato: Sereno Sereno 19 82 1015 vento: Nord O 18.5
21 Maggio 2024 21:50 tempo osservato: Sereno Sereno 19 82 1015 vento: Nord O 20.3
21 Maggio 2024 21:20 tempo osservato: Sereno Sereno 19 82 1015 vento: Nord O 18.5
21 Maggio 2024 20:50 tempo osservato: Sereno Sereno 20 82 1014 vento: Nord O 22.2
21 Maggio 2024 20:20 tempo osservato: Nuvoloso Nuvoloso 20 82 1014 vento: Nord O 22.2
21 Maggio 2024 19:50 tempo osservato: Molto Nuvoloso Molto Nuvoloso 20 82 1014 vento: Nord O 22.2
21 Maggio 2024 19:20 tempo osservato: Poco Nuvoloso Poco Nuvoloso 20 82 1014 vento: Nord O 25.9
21 Maggio 2024 18:50 tempo osservato: Sereno Sereno 22 78 1013 vento: Nord O 24
21 Maggio 2024 18:20 tempo osservato: Poco Nuvoloso Poco Nuvoloso 22 73 1013 vento: Nord O 25.9
21 Maggio 2024 17:50 tempo osservato: Sereno Sereno 22 73 1013 vento: Nord O 27.8
21 Maggio 2024 17:20 tempo osservato: Sereno Sereno 23 73 1013 vento: Nord O 29.6
21 Maggio 2024 16:50 tempo osservato: Poco Nuvoloso Poco Nuvoloso 23 68 1013 vento: Nord O 31.5
21 Maggio 2024 16:20 tempo osservato: Sereno Sereno 23 73 1013 vento: Nord O 29.6
21 Maggio 2024 15:50 tempo osservato: Sereno Sereno 23 73 1013 vento: Nord O 31.5
21 Maggio 2024 15:20 tempo osservato: Poco Nuvoloso Poco Nuvoloso 23 73 1013 vento: Nord O 27.8
21 Maggio 2024 14:20 tempo osservato: Molto Nuvoloso Molto Nuvoloso 23 78 1013 vento: Nord O 25.9
21 Maggio 2024 13:50 tempo osservato: Molto Nuvoloso Molto Nuvoloso 22 83 1013 vento: Nord O 25.9